Location: Casalecchio di Reno
(44.4760°N, 11.2757°E)
Time: 00:35:54
(UTC+02:00)

UWE-3 - Pass Details

Date: 19 June 2024
Orbit: 566 x 652 km, 97.8° (Epoch: 17 July)

Event Time Altitude Azimuth Distance (km) Brightness Sun altitude
Rises 02:31:19 0° 33° (NNE) 2,894 ? -20.0°
Reaches altitude 10° 02:34:47 10° 63° (ENE) 1,959 ? -19.8°
Maximum altitude 02:36:38 13° 89° (E) 1,779 ? -19.7°
Drops below altitude 10° 02:38:27 10° 115° (ESE) 1,928 ? -19.5°
Enters shadow 02:39:31 - 127° (SE) 2,145 ? -19.5°
